www.pogodaiklimat.ru

Погода и климат >> Архив погоды >> Норвегия >> Sklinna Fyr


ПОГОДА в Sklinna Fyr

  • Прогноз погоды в Sklinna Fyr
  • Монитор погоды в Sklinna Fyr
  • Климат города

АРХИВ ПОГОДЫ в Sklinna Fyr

Время (UTC), дата Ветер
(напр.,м/с)
 
Видим.   Явления Облачность Т
(С)
Тd
(С)
f
(%)
Тe
(С)
Тes
(С)
Комфортность P
(гПа)
Po
(гПа)
Тmin
(С)
Tmax
(С)
R
(мм)
R24
(мм)
S
(см)
13 8.12 Ю 10
{12}
н/о н/о +4.6 +1.1 78 -2 -2 969.7 967.8
14 8.12 Ю 8
{12}
н/о н/о +4.6 +1.5 80 -1 -1 970.3 968.4
15 8.12 ЮВ 9
{11}
н/о н/о +3.8 +1.7 86 -3 -3 970.9 969.0
16 8.12 ЮВ 7
{11}
н/о н/о +2.9 +1.3 89 -3 -3 971.5 969.6
17 8.12 ЮВ 6
{7}
н/о н/о +3.5 +1.9 89 -2 -2 971.9 970.0
18 8.12 ЮВ 6
{12}
н/о н/о +3.9 +1.5 84 -2 -2 972.6 970.7
19 8.12 ЮВ 6
{8}
н/о н/о +3.9 +1.6 85 -2 -2 973.2 971.3
20 8.12 Ю 6
{8}
н/о н/о +3.8 +1.8 87 -2 -2 974.0 972.1
21 8.12 Ю 8
{9}
н/о н/о +3.6 +1.3 85 -3 -3 974.3 972.4
22 8.12 ЮВ 5
{9}
н/о н/о +3.3 +1.0 85 -2 -2 974.9 973.0
23 8.12 ЮВ 5
{7}
н/о н/о +3.1 +1.0 86 -2 -2 975.5 973.6
00 9.12 ЮВ 6
{9}
н/о н/о +3.1 +1.0 86 -3 -3 975.9 974.0
01 9.12 ЮВ 6
{8}
н/о н/о +2.9 +0.8 86 -3 -3 976.4 974.5
02 9.12 ЮВ 5
{7}
н/о н/о +2.9 +1.1 88 -2 -2 976.7 974.8
03 9.12 ЮВ 6
{7}
н/о н/о +2.8 +1.0 88 -3 -3 977.1 975.2
04 9.12 ЮВ 6
{7}
н/о н/о +2.8 +0.9 87 -3 -3 977.4 975.5
05 9.12 Ю 6
{8}
н/о н/о +2.8 +0.5 85 -3 -3 977.7 975.8
06 9.12 Ю 7
{9}
н/о н/о +2.7 +0.3 84 -4 -4 977.9 976.0 +2.6 +3.9
07 9.12 ЮВ 8
{9}
н/о н/о +2.7 +0.3 84 -4 -4 978.0 976.1
08 9.12 Ю 9
{10}
н/о н/о +3.1 +0.8 85 -4 -4 978.6 976.7
09 9.12 Ю 8
{10}
н/о н/о +3.1 +1.0 86 -3 -3 978.8 976.9
10 9.12 ЮВ 8
{10}
н/о н/о +3.3 +0.9 84 -3 -3 978.9 977.0
11 9.12 ЮВ 9
{11}
н/о н/о +3.1 +0.7 84 -4 -4 978.9 977.0
12 9.12 ЮВ 10
{12}
н/о н/о +3.0 +0.6 84 -4 -4 978.8 976.9
13 9.12 ЮВ 11
{14}
н/о н/о +2.5 +0.9 89 -5 -5 978.6 976.7
14 9.12 ЮВ 11
{13}
н/о н/о +2.7 +1.5 92 -5 -5 978.6 976.7
15 9.12 Ю 8
{12}
н/о н/о +2.9 +1.6 91 -4 -4 978.8 976.9
16 9.12 Ю 9
{14}
н/о н/о +3.6 +1.8 88 -3 -3 978.9 977.0
17 9.12 Ю 14
{16}
н/о н/о +3.2 +1.7 90 -5 -5 979.2 977.3
18 9.12 Ю 15
{17}
н/о н/о +3.1 +1.5 89 -5 -5 979.6 977.7 +2.2 +4.2
19 9.12 Ю 12
{17}
н/о н/о +3.1 +1.5 89 -5 -5 979.9 978.0
20 9.12 Ю 14
{18}
н/о н/о +3.0 +1.8 92 -5 -5 980.3 978.4
21 9.12 Ю 12
{17}
н/о н/о +2.7 +1.5 92 -5 -5 980.6 978.7
22 9.12 Ю 14
{16}
н/о н/о +2.9 +1.1 88 -5 -5 980.7 978.8
23 9.12 Ю 14
{18}
н/о н/о +3.1 +1.0 86 -5 -5 981.1 979.2
00 10.12 Ю 15
{18}
н/о н/о +3.2 +0.6 83 -5 -5 981.1 979.2
01 10.12 ЮВ 15
{18}
н/о н/о +3.0 +0.6 84 -5 -5 981.2 979.3
02 10.12 ЮВ 17
{19}
н/о н/о +2.8 +0.2 83 -6 -6 981.3 979.4
03 10.12 ЮВ 16
{19}
н/о н/о +2.7 +0.4 85 -6 -6 981.4 979.5
04 10.12 ЮВ 17
{19}
н/о н/о +2.6 +0.8 88 -6 -6 981.7 979.8
05 10.12 Ю 15
{20}
н/о н/о +2.4 +0.6 88 -6 -6 982.1 980.2
06 10.12 Ю 15
{20}
н/о н/о +1.8 +0.8 93 -7 -7 982.3 980.4 +1.7 +3.5
07 10.12 ЮВ 15
{18}
н/о н/о +2.2 +1.0 92 -7 -7 982.7 980.8
08 10.12 Ю 15 н/о н/о +2.2 +0.6 89 -7 -7 983.2 981.3
09 10.12 Ю 15
{20}
н/о н/о +1.8 +0.8 93 -7 -7 982.3 980.4 +1.7 +3.5
11 10.12 ЮВ 12 н/о н/о +2.5 -2.2 71 -5 -5 984.3 982.4
14 10.12 ЮВ 12
{15}
н/о н/о +2.2 -2.9 69 -6 -6 984.3 982.4
15 10.12 ЮВ 10 н/о н/о +2.2 -3.1 68 -5 -5 984.5 982.6
16 10.12 ЮВ 11
{14}
н/о н/о +2.5 -2.8 68 -5 -5 984.6 982.7
17 10.12 ЮВ 11
{13}
н/о н/о +2.4 -3.3 66 -5 -5 984.6 982.7
18 10.12 ЮВ 11
{16}
н/о н/о +2.4 -3.1 67 -5 -5 984.9 983.0
19 10.12 ЮВ 11
{13}
н/о н/о +2.6 -2.5 69 -5 -5 985.2 983.3
20 10.12 ЮВ 11
{13}
н/о н/о +2.2 -3.5 66 -5 -5 985.7 983.8
21 10.12 ЮВ 10
{13}
н/о н/о +2.2 -3.5 66 -5 -5 986.3 984.4
22 10.12 ЮВ 11
{14}
н/о н/о +2.3 -3.6 65 -5 -5 986.7 984.8
23 10.12 ЮВ 10
{14}
н/о н/о +2.1 -4.4 62 -5 -5 987.2 985.3
00 11.12 ЮВ 10
{14}
н/о н/о +2.0 -4.3 63 -5 -5 987.8 985.9
01 11.12 ЮВ 11
{14}
н/о н/о +1.9 -4.4 63 -6 -6 988.2 986.3
02 11.12 ЮВ 11
{14}
н/о н/о +1.6 -3.6 68 -6 -6 989.1 987.2
03 11.12 ЮВ 10
{14}
н/о н/о +1.3 -4.3 66 -6 -6 989.6 987.7
04 11.12 ЮВ 10
{13}
н/о н/о +1.4 -4.0 67 -6 -6 990.1 988.2
05 11.12 ЮВ 12
{15}
н/о н/о +1.3 -4.9 63 -7 -7 990.6 988.7
06 11.12 ЮВ 12
{15}
н/о н/о +0.8 -5.4 63 -7 -7 991.2 989.3 +0.8 +2.6
07 11.12 ЮВ 10
{14}
н/о н/о +0.4 -5.8 63 -7 -7 992.1 990.2
08 11.12 ЮВ 9
{13}
н/о н/о +0.2 -5.8 64 -7 -7 992.7 990.8
09 11.12 ЮВ 10
{13}
н/о н/о +0.1 -5.9 64 -8 -8 993.5 991.6
10 11.12 ЮВ 10
{13}
н/о н/о 0.0 -5.5 66 -8 -8 993.8 991.9
11 11.12 ЮВ 10
{13}
н/о н/о +0.2 -5.6 65 -8 -8 994.3 992.4
12 11.12 Ю 10
{14}
н/о н/о +0.1 -6.3 62 -8 -8 994.6 992.7
13 11.12 ЮВ 9
{12}
н/о н/о +0.1 -5.7 65 -7 -7 994.9 993.0
14 11.12 ЮВ 9
{11}
н/о н/о +0.1 -5.9 64 -7 -7 995.3 993.4
15 11.12 ЮВ 9
{12}
н/о н/о +0.1 -6.1 63 -7 -7 995.9 994.0
16 11.12 ЮВ 10
{13}
н/о н/о +0.1 -5.9 64 -8 -8 996.2 994.3
17 11.12 ЮВ 10
{13}
н/о н/о +0.3 -5.9 63 -7 -7 996.6 994.7
18 11.12 ЮВ 10
{13}
н/о н/о +0.3 -5.9 63 -7 -7 996.8 994.9 -0.1 +0.9
19 11.12 ЮВ 10
{12}
н/о н/о +0.3 -6.3 61 -7 -7 997.0 995.1
20 11.12 ЮВ 9
{12}
н/о н/о +0.3 -6.1 62 -7 -7 997.2 995.3
21 11.12 Ю 10
{13}
н/о н/о +0.2 -6.4 61 -7 -7 997.2 995.3
22 11.12 ЮВ 9
{13}
н/о н/о -0.1 -5.4 67 -8 -8 997.1 995.2
23 11.12 ЮВ 9
{12}
н/о н/о 0.0 -4.9 70 -8 -8 997.0 995.1
00 12.12 ЮВ 9
{13}
н/о н/о -0.1 -4.9 70 -8 -8 996.9 995.0
01 12.12 ЮВ 10
{12}
н/о н/о -0.3 -5.1 70 -8 -8 996.6 994.7
02 12.12 ЮВ 11
{13}
н/о н/о -0.5 -5.6 68 -9 -9 996.5 994.6
03 12.12 ЮВ 11
{14}
н/о н/о -0.6 -5.4 70 -9 -9 996.3 994.4
04 12.12 ЮВ 11
{15}
н/о н/о -0.7 -5.1 72 -9 -9 996.1 994.2
05 12.12 ЮВ 11
{13}
н/о н/о -0.8 -5.0 73 -9 -9 995.9 994.0
06 12.12 Ю 11
{15}
н/о н/о -1.1 -5.2 74 -10 -10 995.5 993.6 -1.1 +0.5
07 12.12 Ю 10
{13}
н/о н/о -1.2 -5.1 75 -10 -10 995.3 993.4
08 12.12 Ю 11
{12}
н/о н/о -1.0 -4.4 78 -10 -10 994.8 992.9
09 12.12 Ю 11
{13}
н/о н/о -0.4 -3.8 78 -9 -9 994.6 992.7
10 12.12 н/о
11 12.12 Ю 11
{13}
н/о н/о -0.5 -4.1 77 -9 -9 994.1 992.2
12 12.12 Ю 11
{13}
н/о н/о -0.6 -4.5 75 -9 -9 993.4 991.5
13 12.12 Ю 11
{13}
н/о н/о -0.7 -4.4 76 -9 -9 993.1 991.2
14 12.12 Ю 11
{13}
н/о н/о -0.8 -4.9 74 -9 -9 992.7 990.8
15 12.12 ЮВ 10
{12}
н/о н/о -1.1 -4.4 78 -10 -10 992.3 990.4
16 12.12 Ю 12
{13}
н/о н/о -0.5 -3.6 80 -9 -9 991.6 989.7
17 12.12 Ю 11
{13}
н/о н/о -0.4 -3.5 80 -9 -9 991.0 989.1
18 12.12 Ю 12
{13}
н/о н/о -0.5 -3.6 80 -9 -9 990.4 988.5 -1.2 0.0
19 12.12 Ю 11
{13}
н/о н/о -0.8 -3.5 82 -10 -10 989.8 987.9
20 12.12 Ю 11
{13}
н/о н/о -0.8 -3.5 82 -10 -10 989.8 987.9
21 12.12 Ю 13
{14}
н/о н/о -0.7 -1.8 92 -10 -10 988.4 986.5
22 12.12 ЮВ 12
{14}
н/о н/о -0.6 -2.0 90 -10 -10 987.7 985.8
23 12.12 ЮВ 12
{15}
н/о н/о -0.4 -1.7 91 -9 -9 986.8 984.9
00 13.12 ЮВ 12
{15}
н/о н/о -0.6 -1.9 91 -10 -10 986.2 984.3
01 13.12 ЮВ 10
{13}
н/о н/о -0.9 -1.9 93 -10 -10 985.8 983.9
02 13.12 ЮВ 8
{11}
н/о н/о -0.7 -1.6 94 -9 -9 985.7 983.8
03 13.12 В 9
{11}
н/о н/о -1.0 -1.7 95 -9 -9 985.1 983.2
04 13.12 ЮВ 7
{10}
н/о н/о -0.8 -2.1 91 -8 -8 984.6 982.7
05 13.12 ЮВ 6
{9}
н/о н/о -0.5 -1.9 90 -7 -7 984.3 982.4
06 13.12 ЮВ 6
{13}
н/о н/о 0.0 -1.0 93 -7 -7 984.0 982.1 -1.1 +0.1
07 13.12 В 6
{8}
н/о н/о -0.1 -1.4 91 -7 -7 984.1 982.2
08 13.12 В 7
{9}
н/о н/о -0.1 -2.5 84 -7 -7 984.0 982.1
09 13.12 В 6
{8}
н/о н/о +0.1 -2.9 80 -6 -6 983.9 982.0
10 13.12 В 6
{8}
н/о н/о +0.1 -3.1 79 -6 -6 983.9 982.0
11 13.12 СВ 7
{9}
н/о н/о -0.2 -3.0 81 -7 -7 983.8 981.9
12 13.12 СВ 7
{9}
н/о н/о -0.2 -3.2 80 -7 -7 983.6 981.7
13 13.12 В 7
{9}
н/о н/о -0.3 -4.1 75 -7 -7 983.6 981.7
14 13.12 СВ 6
{8}
н/о н/о -0.3 -4.1 75 -7 -7 983.4 981.5
15 13.12 В 6
{8}
н/о н/о -0.3 -4.1 75 -7 -7 983.5 981.6
16 13.12 В 8
{9}
н/о н/о -0.2 -4.0 76 -8 -8 983.3 981.4
17 13.12 В 7
{9}
н/о н/о +0.1 -3.8 75 -7 -7 983.3 981.4
18 13.12 В 7
{9}
н/о н/о 0.0 -3.4 78 -7 -7 983.2 981.3 -0.4 +0.2
19 13.12 В 7
{9}
н/о н/о +0.2 -3.3 77 -7 -7 983.3 981.4
20 13.12 В 7
{9}
н/о н/о +0.3 -3.8 74 -6 -6 983.2 981.3
21 13.12 В 7
{10}
н/о н/о +0.2 -3.9 74 -7 -7 983.1 981.2
22 13.12 В 7
{9}
н/о н/о +0.3 -3.2 77 -7 -7 983.1 981.2
23 13.12 В 6
{9}
н/о н/о +0.1 -3.6 76 -6 -6 983.3 981.4
00 14.12 В 7
{10}
н/о н/о +0.2 -3.5 76 -7 -7 983.3 981.4
01 14.12 В 8
{10}
н/о н/о +0.3 -3.8 74 -7 -7 983.4 981.5
02 14.12 В 7
{9}
н/о н/о +0.4 -4.0 72 -6 -6 983.6 981.7
03 14.12 В 6
{8}
н/о н/о +0.6 -4.0 71 -6 -6 983.5 981.6
04 14.12 В 7
{9}
н/о н/о +0.7 -4.5 68 -6 -6 983.7 981.8
05 14.12 В 7
{9}
н/о н/о +0.8 -4.8 66 -6 -6 983.8 981.9
06 14.12 В 7
{10}
н/о н/о +0.6 -5.2 65 -6 -6 984.2 982.3 0.0 +0.9
07 14.12 В 6
{8}
н/о н/о +0.6 -4.0 71 -6 -6 984.3 982.4
08 14.12 В 5
{7}
н/о н/о +0.4 -4.6 69 -5 -5 984.8 982.9
09 14.12 В 4
{7}
н/о н/о +0.5 -4.3 70 -5 -5 985.1 983.2
10 14.12 В 5
{7}
н/о н/о +0.5 -4.7 68 -5 -5 985.6 983.7
11 14.12 В 5
{8}
н/о н/о +0.4 -4.2 71 -5 -5 985.8 983.9
12 14.12 В 3
{8}
н/о н/о +0.1 -4.7 70 -4 -4 985.9 984.0
13 14.12 В 4
{6}
н/о н/о +0.1 -4.7 70 -5 -5 986.1 984.2
14 14.12 В 3
{5}
н/о н/о 0.0 -4.6 71 -4 -4 986.3 984.4
15 14.12 В 3
{6}
н/о н/о -0.3 -4.9 71 -5 -5 986.8 984.9
16 14.12 В 3 н/о н/о -0.2 -4.6 72 -5 -5 987.0 985.1
17 14.12 Ю 3
{5}
н/о н/о -0.5 -3.5 80 -5 -5 987.4 985.5
18 14.12 Ю 2
{6}
н/о н/о -0.4 -3.4 80 -4 -4 987.8 985.9 +0.7
19 14.12 ЮЗ 3
{4}
н/о н/о -0.5 -3.5 80 -5 -5 988.1 986.2
20 14.12 ЮЗ 2
{5}
н/о н/о -0.7 -3.7 80 -4 -4 988.4 986.5

 

Местоположение метеостанции Sklinna Fyr (Норвегия): широта 65.20 долгота 11.00 высота над уровнем моря 23 м.

В архиве по умолчанию представлена погода в Sklinna Fyr за последнюю неделю. Архивные данные за месяц целиком и за предыдущие месяцы, начиная с января 2011 года, Вы можете получить, выбрав интересующий диапазон дат из раскрывающегося списка и нажав кнопку "Ввод!".

Внимание! Время в таблицах - всемирное. Для получения местного времени необходимо прибавить поправку, которая в Sklinna Fyr равна 1 ч.

Смотрите также архив погоды в соседних городах и на ближайших метеорологических станциях:

Погода в Rorvik Lufthavn (Норвегия) (42 км)
Погода в S?mna-Kval?yfjellet (Норвегия) (46 км)
Погода в Nordoyan Fyr (Норвегия) (49 км)
Погода в Bronnoysund Lufthavn (Норвегия) (64 км)
Погода в Vega-Vallsjo (Норвегия) (68 км)
Погода в Namsos Lufthavn (Норвегия) (86 км)
Погода в Buholmrasa Fyr (Норвегия) (93 км)
Погода в Tjotta (Норвегия) (96 км)
Погода в Gartland (Норвегия) (99 км)
Погода в Namsskogan (Норвегия) (101 км)

Пояснения к столбцам:

Ветер - указаны скорость ветра в м/с - средняя за 10 мин, порывы в срок и между сроками (в фигурных скобках) и направление, откуда дует ветер: С - северный, СВ - северо-восточный, В - восточный, ЮВ - юго-восточный, Ю - южный, ЮЗ - юго-западный, З - западный, СЗ - северо-западный.
Видимость - горизонтальная дальность видимости в метрах или километрах. При видимости от 1 до 10 км при отсутствии осадков обычно наблюдается дымка, при ухудшении видимости до 1 км и менее - туман. В сухую погоду видимость может ухудшаться дымом, пылью или мглою.
Явления - указаны атмосферные явления, наблюдавшиеся в срок или в последний час перед сроком; фигурными скобками обозначены явления, наблюдавшиеся между сроками (за 1-3 часа до срока); квадратными скобками обозначены град или гололедные отложения с указанием их диаметра в мм.
Облачность - указаны через наклонную черту общая и нижняя облачность в баллах и высота нижней границы облаков в метрах; квадратными скобками обозначены формы облаков: Ci - перистые, Cs - перисто-слоистые, Cc - перисто-кучевые, Ac - высококучевые, As - высокослоистые, Sc - слоисто-кучевые, Ns - слоисто-дождевые, Cu - кучевые, Cb - кучево-дождевые. Подробнее классификацию облаков см. в Атласе облаков (PDF).
T - Температура воздуха - температура, измеренная на высоте 2 м над землей.
Td - Температура точки росы - температура, при понижении до которой содержащийся в воздухе водяной пар достигнет насыщения.
f - Относительная влажность воздуха - влажноcть воздуха, измеренная на высоте 2 м над землей.
Te - Эффективная температура - температура, которую ощущает одетый по сезону человек в тени. Характеристика душности погоды. При расчете учитывается влияние влажности воздуха и скорости ветра на теплоощущения человека.
Tes - Эффективная температура на солнце - температура, которую ощущает человек, с поправкой на солнечный нагрев. Характеристика знойности погоды. Зависит от высоты солнца над горизонтом, облачности и скорости ветра. Ночью, в пасмурную погоду, а также при ветре 12 м/с и более поправка равна нулю.
P - Атмосферное давление - приведенное к уровню моря атмосферное давление.
Po - Атмосферное давление - измеренное на уровне метеостанции атмосферное давление.
Tmin - Минимальная температура - минимум температуры воздуха на высоте 2 м над землей.
Tmax - Максимальная температура - максимум температуры воздуха на высоте 2 м над землей.
R - Количество осадков - Количество выпавших осадков за период времени, мм. При наведении курсора мыши на число - период времени, за который выпало указанное количество осадков.
R24 - Количество осадков - Количество выпавших осадков за 24 часа, мм.
S - Снежный покров - Высота снежного покрова, см. При наведении курсора мыши на число - состояние снежного покрова и степень покрытия местности в баллах.